カタログに戻る

THORAD AGENA D DEB

運用中LEO
NORAD 4311·DEBRIS·🇺🇸 United States

打ち上げ Sep 30, 1969 から Vandenberg Space Force Base

Loading…

次のパス (今後24時間)

TLE

最新Source: Space-Track

元期: Sep 14, 2026, 11:00 UTC

1 04311U 69082DR  26257.45896514  .00002305  00000-0  32703-3 0  9996
2 04311  70.3307 182.9714 0050504 230.5075 129.1605 14.77449337990639

AllMySatでTHORAD AGENA D DEBをリアルタイム追跡

Download on the App Store